CW5920 Weather Reports


time (UTC)temp
C
wind
direction
speed
KPH
gust
KPH
rain 1hr
cm
rain 24hr
cm
rain mn
cm
humidity
%
barometer
mb
20260508013517 18 0.0 0.0 0.00 0.00 0.00 77 1014.6
20260508012516 18 0.0 0.0 0.00 0.00 0.00 76 1014.6
20260508011537 18 0.0 3.2 0.00 0.00 0.00 75 1014.6
20260508010556 18 0.0 0.0 0.00 0.00 0.00 75 1014.5
20260508005516 18 0.0 0.0 0.00 0.00 0.00 73 1014.5
20260508004537 18 0.0 1.6 0.00 0.00 0.00 73 1014.5
20260508003516 18 135 1.6 4.8 0.00 0.00 0.00 72 1014.5
20260508002516 18 135 1.6 4.8 0.00 0.00 0.00 71 1014.6
20260508001517 19 135 1.6 3.2 0.00 0.00 0.00 71 1014.8
20260508000517 19 135 1.6 6.4 0.00 0.00 0.00 70 1014.8
20260507235517 19 135 4.8 8.0 0.00 0.00 0.00 69 1015.2
20260507234516 19 135 3.2 6.4 0.00 0.00 0.00 69 1015.1
20260507233516 19 135 1.6 4.8 0.00 0.00 0.00 68 1014.9
20260507232517 19 0.0 4.8 0.00 0.00 0.00 69 1015.0
20260507231516 19 0.0 3.2 0.00 0.00 0.00 68 1014.9
20260507230516 19 135 3.2 8.0 0.00 0.00 0.00 68 1015.1
20260507225516 19 135 8.0 14.5 0.00 0.00 0.00 67 1015.3
20260507224517 20 135 6.4 12.9 0.00 0.00 0.00 67 1015.2
20260507223536 20 158 6.4 11.3 0.00 0.00 0.00 67 1015.3
20260507222516 20 158 6.4 11.3 0.00 0.38 0.00 66 1015.4
20260507221516 20 135 6.4 14.5 0.00 0.43 0.00 65 1015.6
20260507220516 20 158 6.4 12.9 0.00 0.43 0.00 64 1015.6
20260507215536 20 135 8.0 14.5 0.00 0.43 0.00 64 1015.6
20260507214517 20 113 8.0 12.9 0.00 0.43 0.00 62 1015.6
20260507213516 21 90 1.6 14.5 0.00 0.43 0.00 59 1015.8
20260507212516 21 0.0 0.0 0.00 0.43 0.00 56 1015.8
20260507211516 21 0.0 0.0 0.00 0.43 0.00 56 1016.0
20260507210516 21 0.0 0.0 0.00 0.43 0.00 55 1016.3
20260507205516 21 23 3.2 8.0 0.00 0.43 0.00 55 1016.5
20260507204517 21 113 4.8 11.3 0.00 0.43 0.00 56 1016.6
20260507203516 21 113 6.4 11.3 0.00 0.43 0.00 55 1016.5
20260507202536 21 68 3.2 11.3 0.00 0.43 0.00 56 1016.4
20260507201516 21 68 3.2 8.0 0.00 0.43 0.00 54 1016.3
20260507200517 21 23 4.8 8.0 0.00 0.43 0.00 53 1016.3
20260507195516 21 45 3.2 12.9 0.00 0.43 0.00 53 1016.6
20260507194516 21 23 6.4 14.5 0.00 0.43 0.00 52 1016.8
20260507193516 21 45 6.4 12.9 0.00 0.43 0.00 53 1016.9
20260507192516 21 68 1.6 8.0 0.00 0.43 0.00 53 1017.2
20260507191516 22 338 4.8 12.9 0.00 0.43 0.00 52 1017.4
20260507190516 22 315 3.2 8.0 0.00 0.43 0.00 52 1017.9
20260507185516 22 23 1.6 12.9 0.00 0.43 0.00 52 1018.1
20260507184516 21 0 3.2 11.3 0.00 0.43 0.00 56 1017.9
20260507183516 21 338 8.0 19.3 0.00 0.43 0.00 54 1017.8
20260507182516 21 338 8.0 17.7 0.00 0.43 0.00 54 1017.8
20260507181517 21 338 9.7 19.3 0.00 0.43 0.00 55 1017.7
20260507180517 21 338 9.7 19.3 0.00 0.43 0.00 55 1017.9
20260507175556 20 315 8.0 16.1 0.00 0.43 0.00 61 1017.9
20260507174536 20 338 6.4 14.5 0.00 0.43 0.00 61 1018.1
20260507173516 20 338 12.9 19.3 0.00 0.43 0.00 60 1018.2
20260507172536 19 0 6.4 16.1 0.00 0.43 0.00 65 1018.3
20260507171516 19 315 6.4 12.9 0.00 0.43 0.00 64 1018.6
20260507170516 18 315 8.0 19.3 0.00 0.43 0.00 65 1018.6
20260507165516 18 315 6.4 14.5 0.00 0.43 0.00 65 1019.1
20260507164516 18 0 8.0 22.5 0.00 0.43 0.00 66 1019.3
20260507163516 18 0 4.8 12.9 0.00 0.43 0.00 67 1019.6
20260507162516 18 338 3.2 9.7 0.00 0.43 0.00 68 1019.7
20260507161516 17 338 4.8 16.1 0.00 0.43 0.00 68 1019.6
20260507160516 17 338 4.8 16.1 0.00 0.43 0.00 70 1019.7
20260507155516 17 23 4.8 12.9 0.00 0.43 0.00 71 1019.5
20260507154516 17 338 4.8 9.7 0.00 0.43 0.00 73 1019.4
20260507153516 17 338 6.4 12.9 0.00 0.43 0.00 75 1019.5
20260507152516 16 315 6.4 12.9 0.00 0.43 0.00 75 1019.5
20260507151516 16 338 6.4 14.5 0.00 0.43 0.00 77 1019.8
20260507150516 16 0 4.8 14.5 0.00 0.43 0.00 79 1019.8
20260507145516 16 315 3.2 8.0 0.00 0.43 0.00 81 1019.9
20260507144516 15 293 3.2 11.3 0.00 0.48 0.00 85 1020.0
20260507143536 15 293 3.2 12.9 0.00 0.61 0.00 87 1020.1
20260507142516 14 293 3.2 11.3 0.00 0.61 0.00 90 1019.9
20260507141536 14 293 3.2 11.3 0.00 0.61 0.00 91 1020.1
20260507140516 13 293 3.2 11.3 0.00 0.61 0.00 92 1019.9
20260507135536 13 270 1.6 6.4 0.00 0.61 0.00 93 1020.2
20260507134516 13 0.0 6.4 0.00 0.61 0.00 93 1020.1
20260507133516 12 0.0 4.8 0.00 0.61 0.00 93 1020.1
20260507132516 12 0.0 3.2 0.00 0.61 0.00 93 1020.1
20260507131516 12 0.0 1.6 0.00 0.61 0.00 93 1020.1
20260507130536 11 0.0 0.0 0.00 0.61 0.00 92 1020.0
20260507125516 11 0.0 3.2 0.00 0.61 0.00 92 1020.0
20260507124536 11 0.0 0.0 0.00 0.61 0.00 92 1020.1
20260507123516 11 0.0 0.0 0.00 0.61 0.00 92 1020.1
20260507122516 11 0.0 0.0 0.00 0.61 0.00 92 1020.1
20260507121516 11 0.0 0.0 0.00 0.61 0.00 91 1019.9
20260507120516 11 0.0 0.0 0.00 0.61 0.00 91 1020.3
20260507115536 11 0.0 0.0 0.00 0.61 0.00 91 1020.2
20260507114516 11 0.0 0.0 0.00 0.61 0.00 91 1020.0
20260507113516 11 0.0 0.0 0.00 0.61 0.00 91 1019.9
20260507112516 11 0.0 1.6 0.00 0.61 0.00 90 1019.8
20260507111516 11 270 1.6 6.4 0.00 0.61 0.00 90 1019.6
20260507110516 11 270 1.6 6.4 0.00 0.61 0.00 90 1019.4
20260507105536 11 270 3.2 6.4 0.00 0.61 0.00 90 1019.4
20260507104516 12 270 3.2 6.4 0.00 0.61 0.00 90 1019.3
20260507103516 12 270 3.2 9.7 0.00 0.61 0.00 90 1019.1
20260507102516 12 270 4.8 9.7 0.00 0.61 0.00 90 1018.7
20260507101517 12 0.0 3.2 0.00 0.61 0.00 89 1018.7
20260507100516 12 293 1.6 6.4 0.00 0.61 0.00 89 1018.6
20260507095516 12 293 1.6 6.4 0.00 0.61 0.00 89 1018.2
20260507094516 12 0.0 0.0 0.00 0.61 0.00 89 1018.3
20260507093516 12 0.0 0.0 0.00 0.61 0.00 89 1018.3
20260507092536 12 0.0 0.0 0.00 0.61 0.00 88 1017.9
20260507091516 12 293 1.6 6.4 0.00 0.61 0.00 88 1017.7
20260507090516 12 0.0 4.8 0.00 0.61 0.00 88 1017.8
20260507085517 12 0.0 1.6 0.00 0.61 0.61 88 1017.7
20260507084517 13 0.0 4.8 0.00 0.61 0.61 88 1017.5
20260507083517 13 293 1.6 8.0 0.00 0.61 0.61 88 1017.4
20260507082537 13 293 3.2 8.0 0.00 0.61 0.61 87 1017.1
20260507081517 13 293 3.2 8.0 0.00 0.61 0.61 87 1017.2
20260507080537 13 293 3.2 8.0 0.00 0.61 0.61 87 1017.5
20260507075517 13 293 1.6 8.0 0.00 0.61 0.61 87 1017.4
20260507074517 13 293 1.6 6.4 0.00 0.61 0.61 86 1017.4
20260507073517 13 293 1.6 6.4 0.00 0.61 0.61 86 1017.1
20260507072517 13 0.0 0.0 0.00 0.61 0.61 86 1017.0
20260507071517 13 0.0 3.2 0.00 0.61 0.61 86 1016.9
20260507070517 13 0.0 0.0 0.00 0.61 0.61 86 1016.6
20260507065537 14 315 1.6 8.0 0.00 0.61 0.61 86 1016.5
20260507064517 14 0.0 3.2 0.00 0.61 0.61 86 1016.4
20260507063517 14 0.0 4.8 0.00 0.61 0.61 85 1016.5
20260507062517 14 23 1.6 8.0 0.00 0.61 0.61 85 1016.3
20260507061537 14 0.0 4.8 0.00 0.61 0.61 85 1016.3
20260507060517 14 45 1.6 8.0 0.00 0.61 0.61 85 1016.4
20260507055517 14 0.0 4.8 0.00 0.61 0.61 85 1016.3
20260507054517 14 0 1.6 6.4 0.00 0.61 0.61 85 1016.5
20260507053517 14 0 1.6 9.7 0.00 0.61 0.61 84 1016.4
20260507052517 14 338 1.6 9.7 0.00 0.61 0.61 84 1016.4
20260507051517 14 338 4.8 16.1 0.00 0.61 0.61 84 1016.4
20260507050517 14 0 1.6 9.7 0.00 0.61 0.61 84 1016.4
20260507045517 14 0 3.2 12.9 0.00 0.61 0.61 84 1016.2
20260507044517 15 0 3.2 9.7 0.00 0.61 0.61 85 1016.2
20260507043517 15 338 3.2 12.9 0.00 0.61 0.61 85 1016.4
20260507042517 15 338 4.8 12.9 0.00 0.61 0.61 86 1016.4
20260507041557 15 338 3.2 12.9 0.00 0.61 0.61 86 1016.5
20260507040517 15 0 1.6 12.9 0.00 0.61 0.61 86 1016.4
20260507035537 15 23 1.6 9.7 0.00 0.61 0.61 86 1016.6
20260507034517 15 0 1.6 6.4 0.00 0.61 0.61 87 1016.5
20260507033517 15 23 1.6 12.9 0.00 0.61 0.61 87 1016.6
20260507032517 15 338 3.2 9.7 0.00 0.61 0.61 88 1016.4
20260507031517 15 338 3.2 9.7 0.00 0.61 0.61 89 1016.5
20260507030537 15 338 4.8 12.9 0.00 0.61 0.61 89 1016.2
20260507025517 15 315 4.8 11.3 0.00 0.61 0.61 90 1016.2
20260507024517 15 338 4.8 8.0 0.00 0.61 0.61 90 1016.2
20260507023517 15 0.0 6.4 0.00 0.61 0.61 90 1016.0
20260507022517 15 315 4.8 8.0 0.00 0.61 0.61 91 1015.7
20260507021517 15 338 3.2 9.7 0.00 0.61 0.61 91 1015.4
20260507020517 15 338 4.8 12.9 0.00 0.61 0.61 91 1015.2
20260507015537 15 0.0 0.0 0.00 0.61 0.61 91 1015.0
20260507014517 15 0.0 0.0 0.00 0.61 0.61 90 1014.7